891  
ASUS42 KTAE 250316  
RWRTAE  
RWRTAE  
NORTH FLORIDA/SOUTH ALABAMA/SOUTHWEST GEORGIA WEATHER ROUNDUP  
NATIONAL WEATHER SERVICE TALLAHASSEE FLORIDA  
1100 PM EDT THU SEP 24 2020  
 
NOTE: "FAIR" INDICATES FEW OR NO CLOUDS BELOW 12,000 FEET WITH NO  
SIGNIFICANT WEATHER AND/OR S TO VISIBILITY
.  
 
!FLZ017-115-028-034-025-250400   
..NORTH FLORIDA
 
 
 
CITY SKY/WX TMP DP RH WIND PRES REMARKS
 
TALL INTL ARPT MOCLDY 75 73 93 CALM 29.94R  
FSU LOVE BLDG N/A N/A N/A N/A MISG N/A  
APALACHICOLA PTCLDY 79 78 97 S7 29.92R  
PERRY NOT AVBL  
CROSS CITY CLOUDY N/A N/A N/A S5 29.96S  
JACKSONVILLE PTCLDY 77 72 84 SE8 29.97S  

 
 
!FLZ112-006-005-002-011-250400   
..FLORIDA PANHANDLE
 
 
 
CITY SKY/WX TMP DP RH WIND PRES REMARKS
 
MARIANNA HVY RAIN 76 75 97 S7 29.90R FOG  
BONIFAY FAIR 75 73 93 CALM 29.91R  
PANAMA CITY NW FAIR 77 76 96 SE7 29.90R  
TYNDALL AFB LGT RAIN 75 73 94 S12 29.90  
TYND DRONE APT HVY RAIN 75 73 94 W6 29.92  
DE FUNIAK SPR FAIR 74 73 98 CALM 29.92R  
EGLIN AFB CLEAR 75 73 93 CALM 29.90  
DESTIN CLEAR 77 73 87 CALM 29.90R  
HURLBURT PTCLDY 76 71 85 CALM 29.89R  
CRESTVIEW CLOUDY 74 71 91 CALM 29.91S  
PENSACOLA CLOUDY 77 72 84 SW5 29.89R  

 
 
!ALZ063-066-250400   
..SOUTH ALABAMA
 
 
 
CITY SKY/WX TMP DP RH WIND PRES REMARKS
 
DOTHAN CLOUDY 76 75 97 S6 29.94S  
OZARK CAIRNS CLOUDY 76 75 97 S6 29.90  
FT RUCKER HELI MOCLDY 75 74 95 S7 29.90S  
RUCKER HELI 3 FAIR 75 74 95 SW8 29.89  
RUCKER HELI 2 CLOUDY 75 73 94 SW3 29.89  
FLORALA APT MOCLDY 73 69 87 SW5 29.92R  
ANDALUSIA CLOUDY 77 70 79 CALM 29.91  
TROY CLOUDY 77 73 87 S7 29.90R  
EUFALA NOT AVBL  
MOBILE CLOUDY 73 70 90 CALM 29.91R  

 
 
!GAZ120>161-250400   
..SOUTHWEST AND SOUTH CENTRAL GEORGIA
 
 
 
CITY SKY/WX TMP DP RH WIND PRES REMARKS
 
THOMASVILLE CLOUDY 72 70 94 SW5 29.96S  
BAINBRIDGE MOCLDY 73 73 98 SE8 29.93S  
MOODY AFB CLOUDY 75 71 86 CALM 29.95  
VALDOSTA CLOUDY 76 69 79 CALM 29.95R  
MOULTRIE PTCLDY 70 68 94 SE3 29.96S  
BLAKELY LGT RAIN 72 70 94 SE6 29.92S  
ALBANY MOCLDY 71 69 93 SE5 29.95R  
TIFTON CLOUDY 72 70 96 CALM 29.96  
FITZGERALD CLOUDY 73 71 95 E3 29.99S  
CORDELE CLOUDY 72 68 87 S5 29.96S  
AMERICUS CLOUDY 73 70 88 S6 29.96R  
HOMERVILLE CLOUDY 73 70 88 SE3 29.97R  

 
 
!GMZ750-755-770-775-250400   
..COASTAL AND BUOY OBS
 
 
 
STATION/POSITION TIME TEMP WIND PRES VSBY WAVE
 
AIR SEA DIR/SP/G HT/PER  
(UTC) (F) (DEG/KT/KT) (MB) (MI) (FT/S)  
KEATON BEACH 0300 79 130/ 5/ 6 1014.3R  
CEDAR KEY 0300 79 150/ 5/ 6 1014.6R  
C TOWER 0300 80 200/ 15/ 16 1013.4R  
APALACHICOLA BUO 0300 160/ 12/ 16 1014.4  
PANAMA CITY BUOY 0300 81 180/ 10/ 14 1012.9  
MOBILE BUOY NOT AVBL  
ORANGE BCH AL BU 0300 77 80 300/ 4/ 8 1012.5  

 
 
 
CLICK HERE TO GO TO PREVIOUS BULLETINS.

The Nexlab FL Page
The Nexlab GA Page
The Nexlab AL Page Main Text Page